• In Hungary
  • List of Countries
  • For 7 days
  • Water Temperature
  • Satellite Maps
  • Weather Map
  • News
  • Weather Widgets
  • user-avatar
    Login

    Hourly Weather Horodenka

    Today, 22 October, Sunday

    Time Temperature Precipitation Wind Pressure Humidity
    00:00 +7°C° 0 mm 4 mps 741 mmHg 93%
    01:00 +6°C° 0 mm 5 mps 741 mmHg 91%
    02:00 +7°C° 0 mm 3 mps 741 mmHg 91%
    03:00 +5°C° 0 mm 4 mps 741 mmHg 89%
    04:00 +5°C° 0 mm 4 mps 742 mmHg 88%
    05:00 +3°C° 0 mm 5 mps 742 mmHg 87%
    06:00 +3°C° 0 mm 5 mps 743 mmHg 86%
    07:00 +4°C° 0 mm 4 mps 743 mmHg 85%
    08:00 +3°C° 0 mm 4 mps 744 mmHg 82%
    09:00 +4°C° 0 mm 4 mps 744 mmHg 79%
    10:00 +5°C° 0 mm 4 mps 745 mmHg 75%
    11:00 +5°C° 0 mm 4 mps 745 mmHg 71%
    12:00 +7°C° 0 mm 3 mps 745 mmHg 67%
    13:00 +7°C° 0 mm 3 mps 745 mmHg 63%
    14:00 +8°C° 0 mm 3 mps 745 mmHg 59%
    15:00 +7°C° 0 mm 3 mps 745 mmHg 62%
    16:00 +6°C° 0 mm 2 mps 745 mmHg 66%
    17:00 +5°C° 0 mm 2 mps 745 mmHg 70%
    18:00 +5°C° 0 mm 2 mps 745 mmHg 72%
    19:00 +4°C° 0 mm 2 mps 745 mmHg 75%
    20:00 +3°C° 0 mm 2 mps 745 mmHg 77%
    21:00 +3°C° 0 mm 2 mps 745 mmHg 78%
    22:00 +2°C° 0 mm 3 mps 745 mmHg 79%
    23:00 +1°C° 0 mm 3 mps 745 mmHg 80%

    Tomorrow, 23 October, Monday

    Time Temperature Precipitation Wind Pressure Humidity
    00:00 +1°C° 0 mm 3 mps 745 mmHg 80%
    01:00 +1°C° 0 mm 3 mps 745 mmHg 80%
    02:00 +1°C° 0 mm 3 mps 745 mmHg 80%
    03:00 +1°C° 0 mm 3 mps 745 mmHg 80%
    04:00 0°C° 0 mm 3 mps 744 mmHg 81%
    05:00 0°C° 0 mm 3 mps 744 mmHg 81%
    06:00 +1°C° 0 mm 3 mps 744 mmHg 79%
    07:00 0°C° 0 mm 4 mps 744 mmHg 77%
    08:00 0°C° 0 mm 4 mps 744 mmHg 75%
    09:00 +2°C° 0 mm 5 mps 744 mmHg 70%
    10:00 +3°C° 0 mm 5 mps 744 mmHg 65%
    11:00 +6°C° 0 mm 5 mps 744 mmHg 60%
    12:00 +6°C° 0 mm 5 mps 744 mmHg 58%
    13:00 +7°C° 0 mm 5 mps 743 mmHg 56%
    14:00 +7°C° 0 mm 5 mps 743 mmHg 55%
    15:00 +6°C° 0 mm 4 mps 743 mmHg 57%
    16:00 +6°C° 0 mm 4 mps 743 mmHg 59%
    17:00 +5°C° 0 mm 4 mps 743 mmHg 61%
    18:00 +5°C° 0 mm 4 mps 743 mmHg 61%
    19:00 +4°C° 0 mm 4 mps 743 mmHg 61%
    20:00 +3°C° 0 mm 5 mps 743 mmHg 61%
    21:00 +3°C° 0 mm 5 mps 744 mmHg 60%
    22:00 +3°C° 0 mm 5 mps 744 mmHg 60%
    23:00 +4°C° 0 mm 4 mps 744 mmHg 59%

    Day after tomorrow, 24 October, Tuesday

    Time Temperature Precipitation Wind Pressure Humidity
    00:00 +3°C° 0 mm 5 mps 744 mmHg 59%
    01:00 +3°C° 0 mm 5 mps 745 mmHg 58%
    02:00 +3°C° 0 mm 5 mps 745 mmHg 57%
    03:00 +2°C° 0 mm 5 mps 745 mmHg 57%
    04:00 +2°C° 0 mm 5 mps 745 mmHg 57%
    05:00 +2°C° 0 mm 5 mps 745 mmHg 56%
    06:00 +2°C° 0 mm 5 mps 746 mmHg 56%
    07:00 +2°C° 0 mm 5 mps 746 mmHg 56%
    08:00 +2°C° 0 mm 5 mps 747 mmHg 55%
    09:00 +2°C° 0 mm 5 mps 747 mmHg 55%
    10:00 +3°C° 0 mm 5 mps 747 mmHg 54%
    11:00 +3°C° 0 mm 5 mps 748 mmHg 53%
    12:00 +5°C° 0 mm 5 mps 748 mmHg 53%
    13:00 +5°C° 0 mm 5 mps 748 mmHg 53%
    14:00 +5°C° 0 mm 5 mps 748 mmHg 52%
    15:00 +5°C° 0 mm 4 mps 749 mmHg 54%
    16:00 +4°C° 0 mm 4 mps 749 mmHg 55%
    17:00 +4°C° 0 mm 4 mps 749 mmHg 56%
    18:00 +3°C° 0 mm 3 mps 749 mmHg 58%
    19:00 +3°C° 0 mm 3 mps 750 mmHg 61%
    20:00 +2°C° 0 mm 3 mps 750 mmHg 63%
    21:00 +2°C° 0 mm 3 mps 750 mmHg 64%
    22:00 +1°C° 0 mm 3 mps 750 mmHg 66%
    23:00 +1°C° 0 mm 3 mps 750 mmHg 68%

    25 October, Wednesday

    Time Temperature Precipitation Wind Pressure Humidity
    00:00 +1°C° 0 mm 2 mps 750 mmHg 68%
    01:00 +1°C° 0 mm 2 mps 750 mmHg 68%
    02:00 +1°C° 0 mm 2 mps 751 mmHg 68%
    03:00 +1°C° 0 mm 2 mps 751 mmHg 69%
    04:00 +1°C° 0 mm 2 mps 751 mmHg 70%
    05:00 +1°C° 0 mm 2 mps 751 mmHg 71%
    06:00 +1°C° 0 mm 2 mps 751 mmHg 70%
    07:00 +1°C° 0 mm 2 mps 751 mmHg 69%
    08:00 +2°C° 0 mm 2 mps 751 mmHg 68%
    09:00 +2°C° 0 mm 3 mps 751 mmHg 63%
    10:00 +3°C° 0 mm 3 mps 751 mmHg 57%
    11:00 +5°C° 0 mm 3 mps 751 mmHg 52%
    12:00 +5°C° 0 mm 3 mps 751 mmHg 50%
    13:00 +7°C° 0 mm 2 mps 751 mmHg 48%
    14:00 +7°C° 0 mm 2 mps 750 mmHg 46%
    15:00 +6°C° 0 mm 2 mps 750 mmHg 51%
    16:00 +5°C° 0 mm 2 mps 750 mmHg 56%
    17:00 +4°C° 0 mm 2 mps 750 mmHg 60%
    18:00 +4°C° 0 mm 2 mps 750 mmHg 62%
    19:00 +3°C° 0 mm 2 mps 750 mmHg 63%
    20:00 +3°C° 0 mm 2 mps 750 mmHg 64%
    21:00 +3°C° 0 mm 2 mps 750 mmHg 66%
    22:00 +3°C° 0 mm 2 mps 749 mmHg 67%
    23:00 +3°C° 0 mm 2 mps 749 mmHg 69%

    26 October, Thursday

    Time Temperature Precipitation Wind Pressure Humidity
    00:00 +3°C° 0.1 mm 2 mps 749 mmHg 69%
    01:00 +3°C° 0.1 mm 2 mps 749 mmHg 69%
    02:00 +2°C° 0.1 mm 3 mps 748 mmHg 70%
    03:00 +2°C° 0.1 mm 3 mps 748 mmHg 70%
    04:00 +2°C° 0.1 mm 3 mps 747 mmHg 71%
    05:00 +2°C° 0.1 mm 3 mps 747 mmHg 71%
    06:00 +1°C° 0.4 mm 4 mps 746 mmHg 73%
    07:00 +2°C° 0.4 mm 5 mps 746 mmHg 75%
    08:00 +2°C° 0.4 mm 5 mps 745 mmHg 77%
    09:00 +2°C° 1.6 mm 5 mps 745 mmHg 80%
    10:00 +2°C° 1.6 mm 5 mps 744 mmHg 82%
    11:00 +2°C° 1.6 mm 5 mps 744 mmHg 85%
    12:00 +2°C° 0.2 mm 5 mps 744 mmHg 85%
    13:00 +4°C° 0.2 mm 4 mps 744 mmHg 86%
    14:00 +4°C° 0.2 mm 3 mps 743 mmHg 86%
    15:00 +5°C° 0 mm 2 mps 743 mmHg 88%
    16:00 +5°C° 0 mm 2 mps 743 mmHg 90%
    17:00 +5°C° 0 mm 1 mps 743 mmHg 92%
    18:00 +5°C° 0 mm 2 mps 744 mmHg 93%
    19:00 +5°C° 0 mm 2 mps 744 mmHg 93%
    20:00 +5°C° 0 mm 2 mps 744 mmHg 94%
    21:00 +5°C° 0 mm 2 mps 744 mmHg 94%
    22:00 +5°C° 0 mm 2 mps 744 mmHg 95%
    23:00 +6°C° 0 mm 2 mps 744 mmHg 95%

    27 October, Friday

    Time Temperature Precipitation Wind Pressure Humidity
    00:00 +5°C° 0 mm 2 mps 743 mmHg 95%
    01:00 +5°C° 0 mm 2 mps 743 mmHg 95%
    02:00 +4°C° 0 mm 2 mps 743 mmHg 96%
    03:00 +4°C° 0 mm 2 mps 743 mmHg 95%
    04:00 +3°C° 0 mm 3 mps 743 mmHg 95%
    05:00 +3°C° 0 mm 3 mps 742 mmHg 95%
    06:00 +4°C° 0 mm 3 mps 742 mmHg 95%
    07:00 +4°C° 0 mm 3 mps 742 mmHg 94%
    08:00 +5°C° 0 mm 3 mps 741 mmHg 93%
    09:00 +7°C° 0 mm 3 mps 741 mmHg 91%
    10:00 +8°C° 0 mm 4 mps 740 mmHg 88%
    11:00 +10°C° 0 mm 4 mps 740 mmHg 86%
    12:00 +10°C° 1 mm 4 mps 739 mmHg 88%
    13:00 +10°C° 1 mm 4 mps 738 mmHg 90%
    14:00 +10°C° 1 mm 4 mps 738 mmHg 92%
    15:00 +10°C° 0.4 mm 3 mps 737 mmHg 93%
    16:00 +10°C° 0.4 mm 3 mps 737 mmHg 94%
    17:00 +10°C° 0.4 mm 3 mps 736 mmHg 95%
    18:00 +10°C° 1.4 mm 3 mps 735 mmHg 95%
    19:00 +10°C° 1.4 mm 4 mps 734 mmHg 95%
    20:00 +10°C° 1.4 mm 4 mps 734 mmHg 94%
    21:00 +9°C° 1.1 mm 5 mps 733 mmHg 93%
    22:00 +9°C° 1.1 mm 5 mps 732 mmHg 93%
    23:00 +9°C° 1.1 mm 5 mps 731 mmHg 92%
    Show more